DW3777 Weather Reports


time (UTC)temp
F
wind
direction
speed
knots
gust
knots
rain 1hr
in
rain 24hr
in
rain mn
in
humidity
%
barometer
mb
20260508121559 39 213 7.0 10.4 0.00 0.13 0.06 70 1023.2
20260508114601 38 242 10.4 15.6 0.00 0.13 0.06 72 1023.2
20260508113123 38 219 9.6 14.8 0.00 0.13 0.06 72 1023.1
20260508111553 39 242 7.8 12.2 0.00 0.13 0.06 69 1023.0
20260508110051 39 209 8.7 13.9 0.01 0.13 0.06 66 1022.9
20260508104556 40 227 7.8 13.0 0.01 0.13 0.06 67 1022.8
20260508103046 40 224 4.3 9.6 0.01 0.13 0.06 59 1022.7
20260508101548 40 231 7.8 15.6 0.01 0.13 0.06 58 1022.6
20260508100043 40 219 7.0 14.8 0.00 0.12 0.05 57 1022.5
20260508094539 40 186 5.2 13.0 0.00 0.12 0.05 64 1022.3
20260508093037 38 232 5.2 8.7 0.00 0.12 0.05 68 1022.3
20260508091534 38 215 6.1 9.6 0.00 0.12 0.05 71 1022.3
20260508090042 39 196 3.5 7.8 0.00 0.12 0.05 75 1022.1
20260508084531 37 249 4.3 7.8 0.00 0.12 0.05 77 1022.1
20260508083037 36 228 5.2 10.4 0.00 0.12 0.05 80 1022.1
20260508081529 36 275 7.0 12.2 0.00 0.12 0.05 82 1022.0
20260508080033 35 278 12.2 15.6 0.00 0.12 0.05 82 1021.9
20260508074524 38 164 3.5 8.7 0.00 0.13 0.05 80 1021.6
20260508073022 37 220 5.2 8.7 0.00 0.13 0.05 80 1021.5
20260508071520 37 249 4.3 7.8 0.00 0.13 0.05 81 1021.4
20260508070019 37 203 5.2 8.7 0.00 0.13 0.05 85 1021.3
20260508064544 37 178 4.3 8.7 0.01 0.13 0.05 85 1021.1
20260508063016 36 246 6.1 10.4 0.01 0.13 0.05 85 1021.0
20260508061512 36 229 5.2 8.7 0.01 0.13 0.05 87 1020.9
20260508060008 35 240 2.6 6.1 0.02 0.13 0.05 90 1020.7
20260508054506 34 278 0.0 1.7 0.01 0.12 0.04 91 1020.7
20260508053004 33 278 0.0 1.7 0.01 0.12 0.04 91 1020.5
20260508051507 33 190 0.0 1.7 0.01 0.12 0.04 92 1020.4
20260508050002 33 190 0.9 1.7 0.00 0.11 0.03 91 1020.3
20260508044502 33 188 0.0 1.7 0.00 0.11 0.03 91 1020.3
20260508043101 33 217 1.7 3.5 0.01 0.11 0.03 91 1020.1
20260508041559 33 203 0.9 3.5 0.01 0.11 0.03 91 1020.0
20260508040104 33 227 1.7 4.3 0.01 0.11 0.03 92 1019.8
20260508034555 32 238 4.3 7.8 0.01 0.12 0.03 91 1019.7
20260508033057 32 229 5.2 11.3 0.00 0.11 0.02 91 1019.7
20260508031602 33 217 6.1 9.6 0.00 0.11 0.02 89 1019.6
20260508030100 33 239 5.2 7.8 0.01 0.11 0.02 89 1019.5
20260508024548 32 238 4.3 7.0 0.01 0.11 0.02 90 1019.4
20260508023048 32 240 4.3 7.0 0.01 0.11 0.02 91 1019.3
20260508021549 32 262 6.1 8.7 0.01 0.11 0.02 92 1019.3
20260508020049 32 250 4.3 7.0 0.00 0.10 0.02 92 1019.3
20260508014545 32 224 4.3 6.1 0.00 0.10 0.02 92 1019.1
20260508013043 32 254 3.5 8.7 0.00 0.10 0.02 92 1019.0
20260508011546 32 236 7.8 12.2 0.02 0.10 0.02 92 1019.0
20260508010041 33 243 5.2 8.7 0.02 0.10 0.02 91 1018.9
20260508004539 32 194 0.0 2.6 0.02 0.10 0.02 90 1018.7
20260508003032 33 245 1.7 2.6 0.02 0.10 0.02 89 1018.5
20260508001530 0 0.0 0.0 0.00 0.09 0.00 1018.4
20260508000023 0 0.0 0.0 0.00 0.09 0.00 1018.4
20260507234529 0 0.0 0.0 0.00 0.09 0.00 1018.3
20260507233024 34 219 7.0 9.6 0.00 0.09 0.00 83 1018.0
20260507231515 34 232 5.2 9.6 0.00 0.09 0.00 83 1017.8
20260507230013 34 231 4.3 7.0 0.00 0.09 0.00 82 1017.7
20260507214515 34 242 7.0 7.8 0.00 0.09 0.09 81 1017.2
20260507213004 0 0.0 0.0 0.00 0.09 0.09 1017.1
20260507211609 0 0.0 0.0 0.00 0.09 0.09 1017.0
20260507210055 0 0.0 0.0 0.00 0.09 0.09 1016.8
20260507204551 0 0.0 0.0 0.00 0.09 0.09 1016.6
20260507203051 0 0.0 0.0 0.00 0.09 0.09 1016.6
20260507201542 0 0.0 0.0 0.00 0.09 0.09 1016.4
20260507200040 0 0.0 0.0 0.00 0.09 0.09 1016.4
20260507194536 0 0.0 0.0 0.00 0.09 0.09 1016.3
20260507193029 0 0.0 0.0 0.00 0.09 0.09 1016.2
20260507191527 0 0.0 0.0 0.00 0.09 0.09 1016.1
20260507190023 0 0.0 0.0 0.00 0.09 0.09 1016.0
20260507184516 0 0.0 0.0 0.00 0.09 0.09 1016.0
20260507183012 35 51 2.6 4.3 0.00 0.09 0.09 91 1015.8
20260507181508 35 42 2.6 3.5 0.00 0.09 0.09 91 1015.8
20260507180004 35 41 1.7 3.5 0.00 0.09 0.09 91 1015.7
20260507174636 35 36 1.7 3.5 0.00 0.09 0.09 90 1015.6
20260507173056 35 31 1.7 3.5 0.00 0.09 0.09 89 1015.6
20260507171603 35 23 1.7 5.2 0.00 0.09 0.09 89 1015.5
20260507170046 36 54 3.5 6.1 0.00 0.09 0.09 89 1015.5
20260507164541 36 87 3.5 7.8 0.00 0.09 0.09 89 1015.5
20260507163036 36 45 4.3 7.0 0.00 0.09 0.09 89 1015.3
20260507161536 37 27 3.5 6.1 0.00 0.09 0.09 88 1015.2
20260507160031 37 86 0.9 2.6 0.00 0.09 0.09 87 1015.0
20260507154523 37 84 0.9 2.6 0.00 0.09 0.09 87 1015.1
20260507153024 37 150 2.6 7.0 0.00 0.09 0.09 85 1014.9
20260507151515 38 145 2.6 5.2 0.00 0.09 0.09 86 1014.9
20260507150009 39 116 2.6 6.1 0.02 0.09 0.09 85 1014.9
20260507144504 36 304 2.6 4.3 0.02 0.09 0.09 87 1014.8
20260507143119 36 284 3.5 8.7 0.02 0.09 0.09 89 1014.9
20260507141619 35 248 0.9 7.8 0.02 0.09 0.09 88 1014.9
20260507140110 37 234 2.6 3.5 0.00 0.06 0.06 89 1014.7
20260507134547 36 195 2.6 5.2 0.00 0.06 0.06 90 1014.5
20260507133042 37 171 3.5 6.1 0.02 0.06 0.06 89 1014.5
20260507131606 36 252 1.7 6.1 0.03 0.06 0.06 90 1014.3
20260507130034 35 229 3.5 7.0 0.05 0.06 0.06 90 1014.3
20260507124531 34 242 5.2 8.7 0.05 0.06 0.06 89 1014.2
20260507123028 34 257 7.0 10.4 0.03 0.05 0.05 87 1014.1